Overview Statistics Trail Chart Weather Telemetry Raw packets
 

This is the latest recevied weather packets stored in our database for station/object KB1WCR. If no packets are shown the sender has not sent any weather packets the latest 10 day(s).

<< 64 65 66 67 68 69 70 >>
Time Temp. Humidity Pressure Rain* Wind** Luminosity Snow
1787953928 25.56° C 85% 1013.8 hPa 0 mm - 60 W/m² -
1787953626 26.11° C 84% 1013.8 hPa 0 mm - 85 W/m² -
1787953321 25.56° C 85% 1013.8 hPa 0 mm - 122 W/m² -
1787953020 25.56° C 85% 1013.9 hPa 0 mm - 69 W/m² -
1787952719 26.11° C 85% 1013.7 hPa 0 mm - 66 W/m² -
1787952414 26.67° C 83% 1013.7 hPa 0 mm - 125 W/m² -
1787952110 26.11° C 83% 1013.7 hPa 0 mm - 159 W/m² -
1787951809 26.11° C 84% 1014 hPa 0 mm - 175 W/m² -
1787951504 26.11° C 82% 1013.7 hPa 0 mm - 186 W/m² -
1787951201 26.67° C 82% 1013.7 hPa 0 mm - 202 W/m² -
1787950896 26.67° C 83% 1013.6 hPa 0 mm - 237 W/m² -
1787950592 26.11° C 82% 1013.7 hPa 0 mm - 274 W/m² -
1787950287 26.11° C 83% 1013.8 hPa 0 mm - 278 W/m² -
1787949984 26.11° C 82% 1013.8 hPa 0 mm - 110 W/m² -
1787949679 26.67° C 81% 1013.6 hPa 0 mm - 110 W/m² -
1787949375 26.67° C 81% 1013.6 hPa 0 mm - 108 W/m² -
1787949073 27.22° C 81% 1013.9 hPa 0 mm - 89 W/m² -
1787948770 27.78° C 79% 1013.6 hPa 0 mm - 163 W/m² -
1787948469 27.78° C 79% 1013.9 hPa 0 mm - 353 W/m² -
1787948164 26.67° C 80% 1013.9 hPa 0 mm - 366 W/m² -
1787947863 26.67° C 80% 1013.9 hPa 0 mm - 399 W/m² -
1787947562 26.67° C 83% 1014 hPa 0 mm - 394 W/m² -
1787947257 27.22° C 79% 1013.9 hPa 0 mm - 410 W/m² -
1787946956 27.22° C 80% 1014 hPa 0 mm - 417 W/m² -
1787946654 27.22° C 81% 1013.7 hPa 0 mm - 427 W/m² -

* Rain latest hour (hover to see other rain measurements)
** Current wind speed in m/s (hover to see current wind gust speed)